Location: Casa Rossa
(45.2389°N, 12.2056°E)
Time: 22:46:51
(UTC+00:00)

Lacrosse 5 - Pass Details

Date: 14 July 2020
Orbit: 717 x 720 km, 57.0° (Epoch: 11 August)

Event Time Altitude Azimuth Distance (km) Brightness Sun altitude
Rises 01:50:25 0° 281° (W) 3,123 4.9 -14.6°
Reaches altitude 10° 01:53:14 10° 295° (WNW) 2,203 4.3 -14.3°
Maximum altitude 01:57:18 23° 349° (N) 1,487 4.0 -13.9°
Drops below altitude 10° 02:01:22 10° 42° (NE) 2,206 5.9 -13.4°
Sets 02:04:12 0° 57° (ENE) 3,128 6.7 -13.1°
